Marshfield, MA

3:38 AM EDT on March 30, 2017 (GMT -0400)
Marshfield

Weather History for KGHG - August, 2014

Change the Weather History Date:

Saturday, August 30, 2014

  Actual Average (KPYM) Record (KPYM)
Temperature  
Mean Temperature 62 °F -  
Max Temperature 75 °F 78 °F 95 °F (1953)
Min Temperature 50 °F 58 °F 41 °F (1986)
Degree Days  
Heating Degree Days 2    
Growing Degree Days 12 (Base 50)    
Moisture  
Dew Point 55 °F    
Average Humidity 76    
Maximum Humidity 100    
Minimum Humidity 44    
Precipitation  
Precipitation 0.00 in - - ()
Sea Level Pressure  
Sea Level Pressure 30.26 in    
Wind  
Wind Speed 4 mph (SSW)    
Max Wind Speed 15 mph    
Max Gust Speed 24 mph    
Visibility 10 miles    
Events      
Averages and records for this station are not official NWS values.
T = Trace of Precipitation, MM = Missing Value Source: NWS Daily Summary

Daily Weather History Graph

Daily Weather History Graph

Search for Another Location

Airport or City:

Trip Planner

Search our weather history database for the weather conditions in past years. The results will help you decide how hot, cold, wet, or windy it might be!

Date:

Astronomy

Aug. 30, 2014 Rise Set
Actual Time 6:06 AM EDT 7:19 PM EDT
Civil Twilight 5:37 AM EDT 7:48 PM EDT
Nautical Twilight 5:02 AM EDT 8:23 PM EDT
Astronomical Twilight 4:25 AM EDT 8:59 PM EDT
Moon 10:56 AM EDT 9:46 PM EDT
Length of Visible Light 14h 11m
Length of Day
13h 13m
Waxing Crescent, 23% of the Moon is Illuminated
Aug 30
Waxing Crescent
Sep 2
First Quarter
Sep 8
Full
Sep 15
Last Quarter
Sep 24
New

Hourly Weather History & Observations

Time (EDT) Temp. Dew Point Humidity Pressure Visibility Wind Dir Wind Speed Gust Speed Precip Events Conditions
12:10 AM 55.4 °F 53.6 °F 94% 30.30 in 10.0 mi Calm Calm - N/A   Clear
12:30 AM 55.4 °F 53.6 °F 94% 30.30 in 10.0 mi WSW 3.5 mph - N/A   Clear
12:50 AM 55.4 °F 53.6 °F 94% 30.31 in 10.0 mi Calm Calm - N/A   Clear
1:10 AM 53.6 °F 53.6 °F 100% 30.31 in 10.0 mi Calm Calm - N/A   Clear
1:30 AM 53.6 °F 51.8 °F 94% 30.31 in 10.0 mi West 3.5 mph - N/A   Partly Cloudy
1:50 AM 53.6 °F 51.8 °F 94% 30.32 in 10.0 mi Calm Calm - N/A   Clear
2:10 AM 53.6 °F 51.8 °F 94% 30.32 in 10.0 mi Calm Calm - N/A   Clear
2:30 AM 53.6 °F 51.8 °F 94% 30.31 in 10.0 mi Calm Calm - N/A   Clear
2:50 AM 53.6 °F 51.8 °F 94% 30.31 in 10.0 mi Calm Calm - N/A   Clear
3:10 AM 53.6 °F 53.6 °F 100% 30.31 in 10.0 mi Calm Calm - N/A   Clear
3:30 AM 53.6 °F 51.8 °F 94% 30.31 in 10.0 mi Calm Calm - N/A   Clear
3:50 AM 51.8 °F 51.8 °F 100% 30.31 in 10.0 mi Calm Calm - N/A   Clear
4:10 AM 51.8 °F 51.8 °F 100% 30.31 in 10.0 mi Calm Calm - N/A   Clear
4:30 AM 51.8 °F 51.8 °F 100% 30.31 in 10.0 mi Calm Calm - N/A   Clear
4:50 AM 51.8 °F 50.0 °F 94% 30.31 in 10.0 mi Calm Calm - N/A   Clear
5:10 AM 51.8 °F 50.0 °F 94% 30.32 in 10.0 mi West 3.5 mph - N/A   Clear
5:30 AM 51.8 °F 50.0 °F 94% 30.32 in 10.0 mi Calm Calm - N/A   Clear
5:50 AM 50.0 °F 50.0 °F 100% 30.33 in 10.0 mi West 3.5 mph - N/A   Clear
6:10 AM 51.8 °F 50.0 °F 94% 30.33 in 10.0 mi Calm Calm - N/A   Clear
6:30 AM 51.8 °F 51.8 °F 100% 30.33 in 10.0 mi Calm Calm - N/A   Clear
7:10 AM 55.4 °F 53.6 °F 94% 30.34 in 10.0 mi Calm Calm - N/A   Clear
7:30 AM 57.2 °F 55.4 °F 94% 30.33 in 10.0 mi South 3.5 mph - N/A   Clear
7:50 AM 60.8 °F 57.2 °F 88% 30.33 in 10.0 mi SSW 5.8 mph - N/A   Clear
8:10 AM 62.6 °F 55.4 °F 77% 30.33 in 10.0 mi SSW 6.9 mph - N/A   Clear
8:30 AM 64.4 °F 57.2 °F 77% 30.33 in 10.0 mi South 8.1 mph - N/A   Clear
8:50 AM 64.4 °F 55.4 °F 73% 30.33 in 10.0 mi SSW 8.1 mph - N/A   Clear
9:10 AM 66.2 °F 55.4 °F 68% 30.32 in 10.0 mi South 8.1 mph - N/A   Clear
9:30 AM 66.2 °F 55.4 °F 68% 30.31 in 10.0 mi SSE 8.1 mph - N/A   Clear
9:50 AM 68.0 °F 55.4 °F 64% 30.31 in 10.0 mi SSE 10.4 mph - N/A   Clear
10:10 AM 69.8 °F 55.4 °F 60% 30.31 in 10.0 mi South 8.1 mph - N/A   Clear
10:30 AM 69.8 °F 55.4 °F 60% 30.31 in 10.0 mi ESE 9.2 mph - N/A   Clear
10:50 AM 69.8 °F 55.4 °F 60% 30.31 in 10.0 mi SE 5.8 mph - N/A   Clear
11:10 AM 69.8 °F 55.4 °F 60% 30.30 in 10.0 mi SSE 8.1 mph - N/A   Clear
11:30 AM 69.8 °F 55.4 °F 60% 30.29 in 10.0 mi ESE 9.2 mph - N/A   Clear
11:50 AM 69.8 °F 55.4 °F 60% 30.29 in 10.0 mi SE 9.2 mph 16.1 mph N/A   Clear
12:10 PM 71.6 °F 53.6 °F 53% 30.29 in 10.0 mi SE 11.5 mph - N/A   Clear
12:30 PM 71.6 °F 53.6 °F 53% 30.28 in 10.0 mi SE 10.4 mph - N/A   Clear
1:10 PM 71.6 °F 53.6 °F 53% 30.26 in 10.0 mi ESE 12.7 mph 16.1 mph N/A   Clear
1:30 PM 73.4 °F 55.4 °F 53% 30.25 in 10.0 mi SE 9.2 mph 17.3 mph N/A   Clear
1:50 PM 75.2 °F 53.6 °F 47% 30.25 in 10.0 mi South 6.9 mph - N/A   Partly Cloudy
2:10 PM 75.2 °F 55.4 °F 50% 30.24 in 10.0 mi SW 6.9 mph 18.4 mph N/A   Clear
2:30 PM 75.2 °F 55.4 °F 50% 30.23 in 10.0 mi SW 12.7 mph 17.3 mph N/A   Clear
2:50 PM 75.2 °F 53.6 °F 47% 30.22 in 10.0 mi South 10.4 mph - N/A   Clear
3:10 PM 75.2 °F 53.6 °F 47% 30.22 in 10.0 mi SSW 11.5 mph 18.4 mph N/A   Clear
3:50 PM 75.2 °F 53.6 °F 47% 30.21 in 10.0 mi SSW 12.7 mph 20.7 mph N/A   Clear
4:10 PM 75.2 °F 51.8 °F 44% 30.21 in 10.0 mi SSW 13.8 mph 19.6 mph N/A   Clear
4:30 PM 75.2 °F 53.6 °F 47% 30.20 in 10.0 mi SSW 12.7 mph 21.9 mph N/A   Clear
4:50 PM 75.2 °F 55.4 °F 50% 30.20 in 10.0 mi SW 12.7 mph 24.2 mph N/A   Clear
5:10 PM 75.2 °F 55.4 °F 50% 30.19 in 10.0 mi SSW 13.8 mph 19.6 mph N/A   Clear
5:30 PM 73.4 °F 55.4 °F 53% 30.19 in 10.0 mi SSW 15.0 mph 19.6 mph N/A   Clear
5:50 PM 73.4 °F 57.2 °F 57% 30.19 in 10.0 mi SSW 10.4 mph 20.7 mph N/A   Clear
6:10 PM 71.6 °F 57.2 °F 60% 30.19 in 10.0 mi SW 9.2 mph 18.4 mph N/A   Clear
7:10 PM 69.8 °F 60.8 °F 73% 30.19 in 10.0 mi SSW 9.2 mph - N/A   Clear
7:30 PM 68.0 °F 60.8 °F 78% 30.19 in 10.0 mi SSW 9.2 mph 17.3 mph N/A   Clear
7:50 PM 68.0 °F 60.8 °F 78% 30.18 in 10.0 mi SSW 9.2 mph 17.3 mph N/A   Clear
8:10 PM 66.2 °F 60.8 °F 83% 30.19 in 10.0 mi SSW 9.2 mph 16.1 mph N/A   Clear
8:30 PM 66.2 °F 60.8 °F 83% 30.19 in 10.0 mi SSW 8.1 mph - N/A   Clear
8:50 PM 66.2 °F 60.8 °F 83% 30.19 in 10.0 mi SSW 9.2 mph - N/A   Clear
9:10 PM 66.2 °F 60.8 °F 83% 30.19 in 10.0 mi SSW 9.2 mph - N/A   Clear
9:30 PM 66.2 °F 62.6 °F 88% 30.19 in 10.0 mi SSW 8.1 mph - N/A   Clear
9:50 PM 66.2 °F 62.6 °F 88% 30.19 in 10.0 mi SSW 6.9 mph - N/A   Clear
10:10 PM 66.2 °F 62.6 °F 88% 30.19 in 10.0 mi SSW 8.1 mph - N/A   Clear
10:30 PM 66.2 °F 62.6 °F 88% 30.19 in 10.0 mi SSW 6.9 mph - N/A   Clear
10:50 PM 66.2 °F 62.6 °F 88% 30.18 in 10.0 mi SW 5.8 mph - N/A   Clear
11:10 PM 64.4 °F 62.6 °F 94% 30.18 in 10.0 mi SSW 5.8 mph - N/A   Clear
11:50 PM 64.4 °F 60.8 °F 88% 30.17 in 10.0 mi SW 6.9 mph - N/A   Clear